Location: Molveno
(46.1500°N, 10.9667°E)
Time: 01:16:42
(UTC+00:00)

NOSS 3-4 (C) - Pass Details

Date: 05 July 2020
Orbit: 891 x 1321 km, 63.4° (Epoch: 12 July)

Event Time Altitude Azimuth Distance (km) Brightness Sun altitude
Rises 22:06:01 0° 320° (NW) 3,814 7.9 -19.1°
Reaches altitude 10° 22:08:32 10° 321° (NW) 2,915 7.0 -19.3°
Maximum altitude 22:15:33 89° 231° (SW) 1,167 3.8 -19.6°
Enters shadow 22:19:54 29° 144° (SE) 2,068 4.7 -19.8°
